Вернуться в каталог

STARLINK-11213

АктивенСвязьVLEO
NORAD 60309·PAYLOAD·🇺🇸 United States

Запущен Jul 28, 2024 с Vandenberg Space Force Base

Loading…

Ближайшие Пролёты (ближайшие 24 часа)

TLE

СвежийSource: CelesTrak SupGP

Эпоха: Sep 15, 2026, 02:50 UTC

1 60309C 24133J   26258.11854167  .00050554  00000+0  41600-3 0  2587
2 60309  53.1570 292.1661 0001131 103.1673 100.1745 15.69709134    19

Отслеживайте STARLINK-11213 в реальном времени с AllMySat

Download on the App Store